Paganella, Italy

4:06 AM CEST on April 28, 2017 (GMT +0200)
Paganella

Weather History for LIVP - April, 2013

Change the Weather History Date:

Saturday, April 13, 2013

  Actual Average Record
Temperature  
Mean Temperature 31 °F -  
Max Temperature 35 °F 39 °F 48 °F (2015)
Min Temperature 27 °F 29 °F 15 °F (1998)
Degree Days  
Heating Degree Days 34    
Moisture  
Dew Point 25 °F    
Average Humidity 75    
Maximum Humidity 100    
Minimum Humidity 53    
Precipitation  
Precipitation 0.00 in 0.07 in - ()
Sea Level Pressure  
Sea Level Pressure 30.05 in    
Wind  
Wind Speed 11 mph ()    
Max Wind Speed 24 mph    
Max Gust Speed -    
Visibility 3.9 miles    
Events Fog    
Averages and records for this station are not official NWS values.
T = Trace of Precipitation, MM = Missing Value Source: Averaged Metar Reports

Daily Weather History Graph

Daily Weather History Graph

Search for Another Location

Airport or City:

Trip Planner

Search our weather history database for the weather conditions in past years. The results will help you decide how hot, cold, wet, or windy it might be!

Date:

Astronomy

Apr. 13, 2013 Rise Set
Actual Time 6:33 AM CEST 8:00 PM CEST
Civil Twilight 6:01 AM CEST 8:31 PM CEST
Nautical Twilight 5:24 AM CEST 9:09 PM CEST
Astronomical Twilight 4:43 AM CEST 9:50 PM CEST
Moon 8:04 AM CEST (4/13) 11:19 PM CEST (4/13)
Length of Visible Light 14h 29m
Length of Day
13h 27m
Waxing Crescent, 9% of the Moon is Illuminated
Apr 13
Waxing Crescent
Apr 18
First Quarter
Apr 25
Full
May 2
Last Quarter
May 10
New

Hourly Weather History & Observations

Time (CEST) Temp. Windchill Dew Point Humidity Pressure Visibility Wind Dir Wind Speed Gust Speed Precip Events Conditions
12:55 AM 28.4 °F 15.8 °F 28.4 °F 100% 29.86 in 0.0 mi SSW 18.4 mph - N/A Fog Light Freezing Fog
1:55 AM 28.4 °F 14.1 °F 28.4 °F 100% 29.86 in 0.0 mi WSW 24.2 mph - N/A Fog Light Freezing Fog
2:00 AM 29 °F - 29 °F 98%  in 0 mi WSW 24.2 mph - - Fog Heavy Fog
2:55 AM 28.4 °F 14.1 °F 28.4 °F 100% 29.86 in 0.1 mi WSW 24.2 mph - N/A Fog Light Freezing Fog
3:55 AM 28.4 °F 19.7 °F 28.4 °F 100% 29.86 in 0.0 mi North 9.2 mph - N/A Fog Light Freezing Fog
4:55 AM 28.4 °F 19.1 °F 28.4 °F 100% 29.89 in 0.0 mi NNE 10.4 mph - N/A Fog Light Freezing Fog
5:00 AM 29 °F - 28 °F 93%  in 0 mi NNE 10.4 mph - - Fog Heavy Fog
5:55 AM 28.4 °F 20.4 °F 28.4 °F 100% 29.89 in - NNE 8.1 mph - N/A   Unknown
6:55 AM 28.4 °F 19.1 °F 23.0 °F 80% 29.92 in - North 10.4 mph - N/A   Clear
7:55 AM 28.4 °F 18.0 °F 23.0 °F 80% 29.95 in - North 12.7 mph - N/A   Clear
8:00 AM 28 °F - 23 °F 72%  in 31 mi North 12.7 mph - -   Partly Cloudy
8:55 AM 28.4 °F 20.4 °F 19.4 °F 69% 30.01 in - North 8.1 mph - N/A   Clear
9:55 AM 30.2 °F 25.4 °F 19.4 °F 64% 30.04 in 6.2 mi North 4.6 mph - N/A   Partly Cloudy
10:55 AM 30.2 °F 23.4 °F 23.0 °F 75% 30.04 in 6.2 mi North 6.9 mph - N/A   Partly Cloudy
11:00 AM 31 °F - 24 °F 64%  in 37 mi North 6.9 mph - -   Scattered Clouds
11:55 AM 30.2 °F 26.7 °F 23.0 °F 75% 30.06 in 6.2 mi West 3.5 mph - N/A   Partly Cloudy
12:55 PM 32.0 °F 27.5 °F 24.8 °F 75% 30.09 in 6.2 mi South 4.6 mph - N/A   Partly Cloudy
1:55 PM 33.8 °F 28.6 °F 24.8 °F 70% 30.09 in 6.2 mi South 5.8 mph - N/A   Partly Cloudy
2:00 PM 33 °F - 25 °F 61%  in 37 mi South 5.8 mph - -   Scattered Clouds
2:55 PM 33.8 °F 24.3 °F 24.8 °F 70% 30.12 in 6.2 mi SSE 13.8 mph - N/A   Partly Cloudy
3:55 PM 33.8 °F 27.0 °F 23.0 °F 65% 30.12 in 6.2 mi South 8.1 mph - N/A   Scattered Clouds
4:55 PM 35.6 °F 29.2 °F 24.8 °F 65% 30.12 in 6.2 mi South 8.1 mph - N/A   Partly Cloudy
5:00 PM 35 °F - 25 °F 55%  in 37 mi South 8.1 mph - -   Scattered Clouds
5:55 PM 33.8 °F 25.3 °F 23.0 °F 65% 30.12 in 6.2 mi WSW 11.5 mph - N/A   Partly Cloudy
6:55 PM 35.6 °F 30.7 °F 24.8 °F 65% 30.15 in 6.2 mi SW 5.8 mph - N/A   Partly Cloudy
7:55 PM 35.6 °F 30.7 °F 24.8 °F 65% 30.18 in 6.2 mi SW 5.8 mph - N/A   Partly Cloudy
8:00 PM 35 °F - 24 °F 53%  in 37 mi SW 5.8 mph - -   Scattered Clouds
8:55 PM 33.8 °F - 19.4 °F 56% 30.18 in 6.2 mi Calm Calm - N/A   Partly Cloudy
9:55 PM 33.8 °F 28.6 °F 26.6 °F 75% 30.21 in - SSW 5.8 mph - N/A   Clear
10:55 PM 33.8 °F 30.8 °F 23.0 °F 65% 30.24 in - SW 3.5 mph - N/A   Clear
11:00 PM 33 °F - 23 °F 54%  in 25 mi SW 3.5 mph - -  
11:55 PM 33.8 °F 29.6 °F 23.0 °F 65% 30.24 in - WSW 4.6 mph - N/A   Clear